Location: Mountain Grove
(34.0887°N, 86.6172°W)
Time: 00:43:55
(UTC+00:00)

Cosmos 1610 Rocket - Pass Details

Date: 14 July 2020
Orbit: 953 x 1002 km, 82.9° (Epoch: 12 August)

Event Time Altitude Azimuth Distance (km) Brightness Sun altitude
Exits shadow 03:20:17 40° 181° (S) 1,422 5.0 -23.6°
Maximum altitude 03:22:46 86° 96° (E) 1,003 4.4 -23.9°
Drops below altitude 10° 03:29:11 10° 7° (N) 2,778 7.5 -24.7°
Sets 03:31:43 0° 7° (N) 3,732 8.2 -25.0°
